Location: Devore Heights
(34.2372°N, 117.4156°W)
Time: 22:43:22
(UTC+00:00)

Transit 4A - Pass Details

Date: 14 September 2024
Orbit: 864 x 978 km, 66.8° (Epoch: 13 October)

Event Time Altitude Azimuth Distance (km) Brightness Sun altitude
Rises 18:46:31 0° 346° (NNW) 3,604 10.6 55.9°
Reaches altitude 10° 18:49:38 10° 1° (N) 2,675 10.1 56.2°
Maximum altitude 18:54:30 23° 52° (NE) 1,910 9.8 56.6°
Drops below altitude 10° 18:59:25 10° 103° (ESE) 2,710 10.7 57.0°
Sets 19:02:34 0° 118° (ESE) 3,662 11.3 57.2°
